Estación meteorológica de Mataró (Maresme, Maresme)

Consulta los datos en tiempo real de la estación meteorológica de Mataró





Hora UTC 12:45
Temperatura 28.1 ºC
Suelo 15 cm 37.8 ºC
Humedad 62.2 %
Presión 1020.0 hPa
Pluja 0.0 mm
Velocidad viento 12.9 km/h
Dirección viento S
Radiación solar 445.4 W/m²

Webcam

Datos diarios 2026-09-01



Hora UTC (invierno +1h; verano +2h)
Temperatura (ºC) Humedad (%) Presión (hPa) Velocidad viento (km/h) Precipitación (mm) Radiación solar (W/m²)
Hora UTC Aire Suelo 15 cm Humedad Presión Vel. Dir. Vel. Max Dir. Intent. máx 5 min. Rad. Sol.
00:05 23.0 21.6 77.4 1020.2 7.1 NNW 7.1 NNW 0.0 0.1
00:10 22.9 21.6 77.6 1020.2 5.8 NW 8.1 NW 0.0 0.1
00:15 22.9 21.5 78.0 1020.2 6.5 NNW 8.5 NW 0.0 0.1
00:20 22.9 21.5 77.8 1020.2 7.0 NNW 8.5 NNW 0.0 0.1
00:25 22.9 21.5 78.1 1020.2 7.7 NNW 8.8 NNW 0.0 0.1
00:30 23.1 21.6 77.7 1020.1 7.8 NNW 9.9 NNW 0.0 0.1
00:35 23.1 21.7 77.2 1020.2 7.1 NNW 8.8 NW 0.0 0.1
00:40 23.1 21.8 77.3 1020.2 7.5 NNW 9.5 NNW 0.0 0.1
00:45 23.1 21.9 77.7 1020.2 8.1 NNW 10.6 NNW 0.0 0.1
00:50 23.1 21.9 77.6 1020.1 7.0 NW 10.6 NW 0.0 0.1
00:55 23.1 21.9 78.0 1020.1 4.4 NW 7.1 WNW 0.0 0.1
01:00 23.0 21.8 78.0 1020.1 5.5 NNW 8.5 NNW 0.0 0.1
01:05 22.9 21.6 78.2 1020.1 6.2 NW 7.8 WNW 0.0 0.1
01:10 22.9 21.5 77.7 1020.1 5.6 NW 8.1 NW 0.0 0.1
01:15 22.9 21.4 76.9 1020.1 7.0 NNW 9.2 NW 0.0 0.1
01:20 22.8 21.4 76.4 1020.0 7.9 NW 10.6 NNW 0.0 0.1
01:25 23.0 21.5 76.3 1020.0 10.1 NNW 12.4 NNW 0.0 0.1
01:30 23.2 21.7 75.7 1020.0 9.2 NNW 12.0 NNW 0.0 0.1
01:35 23.3 21.9 75.2 1020.0 8.5 NNW 12.7 NNW 0.0 0.1
01:40 23.4 22.1 75.2 1020.0 10.1 NNW 12.7 NNW 0.0 0.1
01:45 23.4 22.2 76.0 1020.0 9.6 NNW 15.2 NW 0.0 0.1
01:50 23.4 22.3 77.0 1019.9 10.8 NNW 14.1 NNW 0.0 0.1
01:55 23.4 22.4 77.4 1019.9 11.2 NNW 16.2 NNW 0.0 0.1
02:00 23.4 22.5 77.6 1020.0 9.9 NNW 13.4 NNW 0.0 0.1
02:05 23.4 22.5 77.9 1019.9 10.5 NNW 14.5 NNW 0.0 0.1
02:10 23.3 22.5 78.6 1019.8 10.0 NNW 13.1 NNW 0.0 0.1
02:15 23.3 22.5 78.4 1019.8 8.7 NNW 12.0 NW 0.0 0.1
02:20 23.3 22.5 78.0 1019.8 8.5 NNW 12.0 NNW 0.0 0.1
02:25 23.3 22.4 77.9 1019.8 9.2 NNW 14.5 NNW 0.0 0.1
02:30 23.4 22.4 77.5 1019.7 9.8 NNW 13.1 NNW 0.0 0.1
02:35 23.4 22.4 77.0 1019.6 8.3 NNW 12.4 NNW 0.0 0.1
02:40 23.4 22.5 77.0 1019.5 8.8 NNW 11.6 NNW 0.0 0.1
02:45 23.5 22.5 77.0 1019.5 9.1 NNW 12.7 NNW 0.0 0.1
02:50 23.5 22.5 77.5 1019.5 9.4 NNW 12.7 NNW 0.0 0.1
02:55 23.4 22.5 78.3 1019.5 9.6 NNW 13.4 NNW 0.0 0.1
03:00 23.4 22.4 79.3 1019.4 9.1 NNW 12.0 N 0.0 0.1
03:05 23.3 22.4 80.2 1019.4 10.2 NNW 13.8 NNW 0.0 0.1
03:10 23.3 22.4 80.8 1019.4 10.5 NNW 13.8 NNW 0.0 0.1
03:15 23.3 22.4 81.1 1019.4 10.8 NNW 15.2 NNW 0.0 0.1
03:20 23.3 22.4 81.3 1019.4 9.9 NNW 13.8 NNW 0.0 0.1
03:25 23.2 22.3 81.5 1019.4 10.6 NNW 13.8 NNW 0.0 0.1
03:30 23.2 22.3 81.7 1019.3 9.6 NNW 13.8 NNW 0.0 0.1
03:35 23.1 22.3 82.1 1019.3 10.4 NNW 14.1 NNW 0.0 0.1
03:40 23.1 22.3 81.9 1019.2 11.3 NNW 16.2 NNW 0.0 0.1
03:45 23.2 22.3 81.6 1019.2 11.9 NNW 15.5 NNW 0.0 0.1
03:50 23.2 22.3 81.1 1019.1 12.6 NNW 16.2 NW 0.0 0.1
03:55 23.3 22.4 80.2 1019.1 12.2 NNW 17.3 NNW 0.0 0.1
04:00 23.3 22.4 79.5 1019.0 12.7 NNW 16.6 NNW 0.0 0.1
04:05 23.3 22.4 79.0 1019.0 12.6 NNW 16.6 NNW 0.0 0.1
04:10 23.3 22.4 78.8 1019.1 11.4 NNW 15.2 NNW 0.0 0.1
04:15 23.3 22.4 78.7 1019.1 11.3 NNW 14.5 NNW 0.0 0.1
04:20 23.2 22.4 78.5 1019.1 10.2 NNW 13.8 NNW 0.0 0.1
04:25 23.2 22.4 78.3 1019.0 11.5 NNW 14.8 NW 0.0 0.1
04:30 23.1 22.3 78.0 1019.0 11.2 NNW 15.9 NNW 0.0 0.1
04:35 23.2 22.3 77.9 1019.1 10.2 NNW 13.8 NNW 0.0 0.1
04:40 23.2 22.3 78.0 1019.1 10.6 NNW 13.8 NNW 0.0 0.1
04:45 23.2 22.3 78.1 1019.0 10.2 NNW 13.8 NW 0.0 0.1
04:50 23.2 22.2 78.2 1019.0 9.5 NNW 13.1 NNW 0.0 0.1
04:55 23.2 22.2 78.2 1019.0 10.1 NNW 13.4 NNW 0.0 0.2
05:00 23.2 22.2 78.1 1019.0 10.0 NNW 14.1 NNW 0.0 0.6
05:05 23.1 22.2 78.2 1019.0 9.6 NNW 12.4 NNW 0.0 1.3
05:10 23.1 22.1 78.0 1019.0 9.6 NNW 13.4 NW 0.0 2.4
05:15 23.1 22.2 78.1 1019.1 10.0 NNW 14.1 NNW 0.0 4.0
05:20 23.1 22.2 78.2 1019.0 10.5 NNW 14.8 NNW 0.0 6.1
05:25 23.1 22.2 78.3 1019.1 10.6 NNW 14.8 NNW 0.0 8.8
05:30 23.1 22.3 78.0 1019.1 10.8 NNW 14.8 NNW 0.0 11.5
05:35 23.1 22.3 77.6 1019.1 11.4 NNW 14.5 NNW 0.0 14.3
05:40 23.2 22.4 76.9 1019.0 10.8 NNW 14.1 NNW 0.0 17.1
05:45 23.3 22.5 76.2 1019.1 10.1 NNW 14.8 NNW 0.0 20.0
05:50 23.4 22.7 75.5 1019.1 11.9 NNW 16.2 N 0.0 22.8
05:55 23.5 22.8 74.6 1019.1 11.3 NNW 15.5 NNW 0.0 25.3
06:00 23.6 23.0 73.6 1019.1 11.3 NNW 16.6 NNW 0.0 62.1
06:05 23.7 23.3 72.8 1019.2 11.9 NNW 14.8 NNW 0.0 99.3
06:10 23.9 24.0 71.9 1019.2 10.6 NNW 15.5 NW 0.0 112.1
06:15 24.0 24.8 71.2 1019.3 11.1 NNW 15.9 NNW 0.0 125.3
06:20 24.1 25.5 70.5 1019.3 11.7 NNW 16.6 NNW 0.0 139.0
06:25 24.2 26.0 69.8 1019.3 11.2 NNW 15.9 NNW 0.0 152.5
06:30 24.4 26.5 69.2 1019.3 10.6 NNW 15.5 NNW 0.0 166.1
06:35 24.5 27.0 69.0 1019.3 11.3 NNW 15.9 NNW 0.0 179.6
06:40 24.6 27.4 68.3 1019.3 10.5 NNW 15.2 NNW 0.0 193.6
06:45 24.8 27.8 67.1 1019.3 9.8 NNW 16.6 NNW 0.0 206.8
06:50 25.0 28.3 66.0 1019.3 11.9 NNW 18.4 NNW 0.0 220.2
06:55 25.1 28.6 65.1 1019.4 11.1 NNW 18.4 N 0.0 233.9
07:00 25.2 28.9 64.7 1019.4 11.1 NNW 15.9 N 0.0 247.2
07:05 25.3 29.1 64.1 1019.4 11.4 NNW 18.0 NNW 0.0 260.9
07:10 25.4 29.2 63.3 1019.4 12.7 NNW 18.0 N 0.0 274.5
07:15 25.5 29.3 62.8 1019.4 12.2 NNW 18.0 NNW 0.0 287.9
07:20 25.6 29.6 62.1 1019.3 10.9 NNW 15.2 NW 0.0 301.8
07:25 25.8 30.0 61.7 1019.3 10.6 NNW 15.5 NNW 0.0 316.0
07:30 26.0 30.5 60.7 1019.3 11.9 NNW 16.9 NNW 0.0 328.9
07:35 26.1 30.7 59.3 1019.3 9.8 NNW 16.2 NNW 0.0 343.0
07:40 26.3 31.3 58.2 1019.3 9.5 NW 13.8 NW 0.0 355.5
07:45 26.4 31.8 56.8 1019.4 8.5 NW 15.9 NW 0.0 368.0
07:50 26.7 32.5 56.6 1019.4 7.1 WNW 14.8 NW 0.0 381.1
07:55 26.8 33.1 55.3 1019.3 7.7 NW 10.9 NW 0.0 395.5
08:00 26.9 33.5 54.7 1019.3 6.5 NW 14.8 NW 0.0 407.4
08:05 27.1 33.8 51.7 1019.3 7.9 NNW 13.8 NNW 0.0 419.0
08:10 27.2 33.9 50.3 1019.3 2.6 W 7.4 SW 0.0 433.3
08:15 27.6 34.3 49.1 1019.4 3.7 W 14.1 W 0.0 446.4
08:20 27.8 34.9 53.6 1019.4 4.7 S 8.1 SSE 0.0 458.2
08:25 27.7 35.3 61.4 1019.4 7.3 ESE 12.7 ESE 0.0 466.9
08:30 27.5 35.3 62.3 1019.4 8.7 SE 17.3 ESE 0.0 478.5
08:35 27.2 35.1 62.8 1019.5 10.4 ESE 14.5 ESE 0.0 490.5
08:40 27.1 34.7 64.3 1019.5 10.8 ESE 18.7 ESE 0.0 494.7
08:45 27.0 34.6 64.2 1019.5 9.3 SE 14.1 SE 0.0 493.0
08:50 26.9 34.9 64.2 1019.6 11.5 SE 17.6 SSE 0.0 526.2
08:55 26.9 35.2 64.0 1019.8 9.5 SSE 15.9 S 0.0 535.6
09:00 27.1 35.4 63.7 1019.9 10.1 SE 19.1 SE 0.0 546.3
09:05 26.9 35.4 64.4 1019.9 10.5 SE 16.2 ESE 0.0 555.0
09:10 26.9 35.4 64.3 1020.0 9.1 SE 18.0 SSE 0.0 564.3
09:15 27.0 35.6 64.2 1020.1 10.9 SE 16.9 SSE 0.0 575.3
09:20 26.9 35.7 64.2 1020.2 8.8 SSE 14.1 SSE 0.0 585.0
09:25 26.9 36.2 64.9 1020.2 9.9 SSE 18.7 SSE 0.0 593.6
09:30 26.9 36.4 63.5 1020.2 10.7 SE 18.7 SE 0.0 605.3
09:35 27.1 36.6 62.4 1020.2 11.8 SE 20.1 SSE 0.0 614.5
09:40 27.3 36.7 62.6 1020.3 11.1 SE 17.6 SSE 0.0 621.1
09:45 27.4 36.9 61.7 1020.3 12.3 SSE 17.3 S 0.0 629.8
09:50 27.4 37.1 60.6 1020.4 11.9 S 19.1 SSW 0.0 637.0
09:55 27.5 37.2 60.2 1020.4 11.0 SSE 18.4 SSE 0.0 644.9
10:00 27.6 37.2 62.2 1020.4 12.0 SE 19.8 SSE 0.0 652.2
10:05 27.7 37.3 60.0 1020.4 9.2 S 20.8 S 0.0 658.4
10:10 27.6 37.3 59.4 1020.5 11.7 S 19.4 SSE 0.0 666.5
10:15 27.7 37.3 60.3 1020.5 13.3 SSE 22.6 SSE 0.0 672.3
10:20 28.0 37.5 57.7 1020.6 10.5 SSW 19.1 SSW 0.0 679.0
10:25 28.1 37.7 56.1 1020.5 13.7 S 25.1 S 0.0 686.5
10:30 28.0 37.8 54.9 1020.5 14.0 S 22.9 S 0.0 692.6
10:35 28.0 37.9 56.3 1020.6 11.6 S 24.0 SSE 0.0 696.3
10:40 28.1 37.9 57.3 1020.5 13.6 S 23.3 S 0.0 701.2
10:45 27.9 37.7 57.9 1020.6 12.4 SSW 23.3 SW 0.0 704.9
10:50 28.0 37.5 57.8 1020.5 13.4 S 21.9 SSE 0.0 711.8
10:55 28.0 37.5 57.1 1020.5 13.5 SSW 22.9 S 0.0 718.0
11:00 28.2 37.6 57.5 1020.5 11.8 SSW 25.8 S 0.0 719.2
11:05 28.1 37.8 58.0 1020.5 12.2 SSW 22.9 SW 0.0 725.4
11:10 28.2 38.0 59.0 1020.4 12.4 SSW 22.9 S 0.0 739.1
11:15 28.0 38.0 60.4 1020.5 13.3 SW 22.6 SSW 0.0 747.0
11:20 28.0 37.6 61.3 1020.4 11.3 SSW 18.7 W 0.0 753.0
11:25 28.5 37.9 59.3 1020.4 12.0 SSW 22.2 SSW 0.0 747.1
11:30 28.4 38.0 57.8 1020.5 14.3 SSW 20.5 SW 0.0 739.9
11:35 28.2 37.8 59.9 1020.4 13.1 SSW 21.5 S 0.0 669.8
11:40 28.3 37.9 59.5 1020.3 11.5 SSW 19.4 SSW 0.0 723.6
11:45 28.2 38.1 58.9 1020.3 11.5 SSW 23.3 S 0.0 759.4
11:50 28.4 38.3 57.7 1020.4 12.8 SSW 22.9 SSE 0.0 734.9
11:55 28.3 38.5 60.7 1020.3 14.4 SSE 25.8 S 0.0 688.6
12:00 28.0 38.5 63.0 1020.2 12.0 SSE 24.3 SSE 0.0 761.3
12:05 28.3 38.6 60.5 1020.2 10.3 SSW 18.7 ESE 0.0 744.6
12:10 28.5 38.9 59.2 1020.3 10.8 SSW 20.8 S 0.0 753.9
12:15 28.2 38.7 61.2 1020.2 12.6 SSW 20.1 S 0.0 544.2
12:20 28.2 38.3 62.2 1020.1 11.7 SSW 21.5 SSW 0.0 709.9
12:25 28.3 38.4 61.2 1020.2 12.8 SSW 21.5 SW 0.0 685.5
12:30 28.2 38.3 61.4 1020.1 12.7 SSW 20.8 SW 0.0 712.2
12:35 27.9 38.1 61.4 1020.1 12.9 SSW 22.2 SE 0.0 651.4
12:40 28.0 37.7 61.9 1020.1 13.3 S 23.3 S 0.0 692.7
12:45 28.1 37.8 62.2 1020.0 12.9 S 28.6 SSE 0.0 445.4
Máxima 28.5 38.9 82.1 1020.6 14.4 SSE 28.6 SSE 0.0 761.3
Mínima 20 20 49.1 1019.0
Total 0.0